Riohacha, Colombia

4:00 PM -05 on May 23, 2017 (GMT -0500)
Almirante Padilla

Weather History for SKRH - September, 2013

Change the Weather History Date:

Saturday, September 21, 2013

  Actual Average Record
Temperature  
Mean Temperature 84 °F -  
Max Temperature 95 °F - - ()
Min Temperature 72 °F - - ()
Cooling Degree Days 18    
Growing Degree Days 34 (Base 50)    
Moisture  
Dew Point 76 °F    
Average Humidity 72    
Maximum Humidity 94    
Minimum Humidity 47    
Precipitation  
Precipitation 0.00 in - - ()
Sea Level Pressure  
Sea Level Pressure 29.78 in    
Wind  
Wind Speed 7 mph ()    
Max Wind Speed 18 mph    
Max Gust Speed 24 mph    
Visibility 7.1 miles    
Events Rain , Thunderstorm    
T = Trace of Precipitation, MM = Missing Value Source: Averaged Metar Reports

Daily Weather History Graph

Daily Weather History Graph

Search for Another Location

Airport or City:

Trip Planner

Search our weather history database for the weather conditions in past years. The results will help you decide how hot, cold, wet, or windy it might be!

Date:

Astronomy

Sep. 21, 2013 Rise Set
Actual Time 5:40 AM -05 5:48 PM -05
Civil Twilight 5:19 AM -05 6:09 PM -05
Nautical Twilight 4:55 AM -05 6:33 PM -05
Astronomical Twilight 4:30 AM -05 6:58 PM -05
Moon 7:32 PM -05 (9/21) 7:25 AM -05 (9/21)
Length of Visible Light 12h 49m
Length of Day
12h 07m
Waning Gibbous, 94% of the Moon is Illuminated
Sep 21
Waning Gibbous
Sep 26
Last Quarter
Oct 4
New
Oct 11
First Quarter
Oct 18
Full

Hourly Weather History & Observations

Time (-05) Temp. Heat Index Dew Point Humidity Pressure Visibility Wind Dir Wind Speed Gust Speed Precip Events Conditions
6:00 AM 75.2 °F - 71.6 °F 89% 29.81 in 6.2 mi Calm Calm - N/A   Scattered Clouds
7:00 AM 76 °F - 72 °F 85% 29.85 in 11 mi Calm Calm - -   Scattered Clouds
7:00 AM 75.2 °F - 73.4 °F 94% 29.93 in 1.2 mi West 9.2 mph 24.2 mph N/A Rain , Thunderstorm Heavy Thunderstorms and Rain
8:00 AM 73.4 °F - 71.6 °F 94% 29.93 in 3.7 mi NNW 8.1 mph - N/A Rain , Thunderstorm Light Thunderstorms and Rain
9:00 AM 86.0 °F 95.1 °F 75.2 °F 70% 29.84 in 6.2 mi East 9.2 mph - N/A   Mostly Cloudy
10:00 AM 87 °F - 75 °F 61% 29.84 in 11 mi ESE 17.9 mph - -   Scattered Clouds
10:00 AM 87.8 °F 97.6 °F 75.2 °F 66% 29.82 in 6.2 mi ESE 17.3 mph - N/A   Scattered Clouds
11:00 AM 89.6 °F 102.2 °F 77.0 °F 66% 29.80 in 6.2 mi East 17.3 mph - N/A   Scattered Clouds
12:00 PM 93.2 °F 105.0 °F 75.2 °F 56% 29.77 in 6.2 mi East 12.7 mph - N/A   Scattered Clouds
1:00 PM 93 °F - 75 °F 47% 29.75 in 11 mi East 11.2 mph - -   Scattered Clouds
1:00 PM 93.2 °F 105.0 °F 75.2 °F 56% 29.73 in 6.2 mi East 10.4 mph - N/A   Partly Cloudy
2:00 PM 95.0 °F 103.2 °F 71.6 °F 47% 29.70 in 6.2 mi East 11.5 mph - N/A   Partly Cloudy
3:00 PM 89.6 °F 108.2 °F 80.6 °F 75% 29.70 in 6.2 mi North 9.2 mph - N/A   Partly Cloudy
4:00 PM 90 °F - 80 °F 65% 29.71 in 11 mi NNE 8.9 mph - -   Scattered Clouds
4:00 PM 89.6 °F 108.2 °F 80.6 °F 75% 29.69 in 6.2 mi NNE 9.2 mph - N/A   Partly Cloudy
5:00 PM 87.8 °F 104.9 °F 80.6 °F 79% 29.70 in 6.2 mi NE 8.1 mph - N/A   Unknown
6:00 PM 86.0 °F 101.9 °F 80.6 °F 84% 29.71 in 6.2 mi NE 4.6 mph - N/A   Unknown
7:00 PM 86 °F - 81 °F 81% 29.76 in 11 mi NNE 4.5 mph - -  
7:00 PM 86.0 °F 101.9 °F 80.6 °F 84% 29.75 in 6.2 mi NNE 4.6 mph - N/A   Unknown